GW1010 Weather Reports


Display with metric or nautical units.
time (UTC)temp
F
wind
direction
speed
MPH
gust
MPH
rain 1hr
in
rain 24hr
in
rain mn
in
humidity
%
barometer
mb
20260901123528 56 0 0.0 0.0 0.00 0.00 0.00 85 1016.5
20260901123111 56 0 0.0 0.0 0.00 0.00 0.00 85 1016.4
20260901122529 56 0 0.0 0.0 0.00 0.00 0.00 85 1016.4
20260901122030 56 0 0.0 0.0 0.00 0.00 0.00 85 1016.4
20260901121553 56 177 0.0 0.0 0.00 0.00 0.00 86 1016.4
20260901121028 56 0 0.0 0.0 0.00 0.00 0.00 86 1016.3
20260901120525 55 0 0.0 0.0 0.00 0.00 0.00 86 1016.3
20260901120058 55 0 0.0 3.0 0.00 0.00 0.00 87 1016.2
20260901115528 55 0 0.0 3.0 0.00 0.00 0.00 87 1016.1
20260901115030 55 0 0.0 0.0 0.00 0.00 0.00 87 1016.1
20260901114603 55 0 0.0 0.0 0.00 0.00 0.00 86 1016.1
20260901114029 55 0 0.0 0.0 0.00 0.00 0.00 85 1016.0
20260901113530 55 0 0.0 0.0 0.00 0.00 0.00 85 1016.0
20260901113056 56 0 0.0 0.0 0.00 0.00 0.00 84 1016.1
20260901112529 56 0 0.0 0.0 0.00 0.00 0.00 84 1016.1
20260901112028 57 0 0.0 3.0 0.00 0.00 0.00 83 1016.1
20260901111605 57 0 0.0 3.0 0.00 0.00 0.00 83 1016.2
20260901111030 57 72 0.0 3.0 0.00 0.00 0.00 84 1016.1
20260901110530 57 0 0.0 3.0 0.00 0.00 0.00 84 1016.1
20260901110048 57 119 0.0 3.0 0.00 0.00 0.00 84 1016.1
20260901105529 56 0 0.0 2.0 0.00 0.00 0.00 85 1016.0
20260901105031 56 0 0.0 3.0 0.00 0.00 0.00 85 1015.9
20260901104550 56 0 0.0 4.0 0.00 0.00 0.00 86 1016.0
20260901104029 56 134 1.0 4.0 0.00 0.00 0.00 87 1016.0
20260901103530 56 160 0.0 5.0 0.00 0.00 0.00 88 1016.0
20260901103054 55 0 0.0 5.0 0.00 0.00 0.00 89 1016.0
20260901102530 55 0 0.0 1.0 0.00 0.00 0.00 90 1015.9
20260901102031 54 0 0.0 0.0 0.00 0.00 0.00 90 1015.9
20260901101553 54 0 0.0 0.0 0.00 0.00 0.00 90 1016.0
20260901101028 54 0 0.0 0.0 0.00 0.00 0.00 90 1015.9
20260901100529 54 0 0.0 0.0 0.00 0.00 0.00 91 1015.8
20260901100053 54 0 0.0 0.0 0.00 0.00 0.00 91 1015.9
20260901095528 53 0 0.0 0.0 0.00 0.00 0.00 91 1016.0
20260901095033 53 0 0.0 0.0 0.00 0.00 0.00 91 1016.0
20260901094548 53 0 0.0 0.0 0.00 0.00 0.00 91 1016.1
20260901094030 53 0 0.0 0.0 0.00 0.00 0.00 91 1016.0
20260901093529 53 0 0.0 0.0 0.00 0.00 0.00 92 1016.0
20260901093045 53 0 0.0 0.0 0.00 0.00 0.00 92 1016.0
20260901092533 52 0 0.0 0.0 0.00 0.00 0.00 92 1015.9
20260901092029 52 0 0.0 0.0 0.00 0.00 0.00 92 1016.0
20260901091549 52 0 0.0 0.0 0.00 0.00 0.00 92 1015.8
20260901091028 52 0 0.0 0.0 0.00 0.00 0.00 92 1016.0
20260901090527 52 0 0.0 0.0 0.00 0.00 0.00 92 1016.0
20260901090046 52 0 0.0 0.0 0.00 0.00 0.00 92 1015.9
20260901085527 52 0 0.0 0.0 0.00 0.00 0.00 92 1016.1
20260901085028 53 0 0.0 0.0 0.00 0.00 0.00 91 1016.1
20260901084544 53 0 0.0 0.0 0.00 0.00 0.00 92 1015.9
20260901084028 53 0 0.0 0.0 0.00 0.00 0.00 92 1015.9
20260901083529 53 0 0.0 0.0 0.00 0.00 0.00 91 1015.9
20260901083051 53 0 0.0 0.0 0.00 0.00 0.00 91 1015.9
20260901082528 53 0 0.0 0.0 0.00 0.00 0.00 91 1016.0
20260901082028 54 0 0.0 0.0 0.00 0.00 0.00 90 1015.8
20260901081550 54 0 0.0 0.0 0.00 0.00 0.00 90 1015.9
20260901081028 54 0 0.0 0.0 0.00 0.00 0.00 90 1015.8
20260901080528 54 0 0.0 0.0 0.00 0.00 0.00 90 1015.8
20260901080047 55 0 0.0 0.0 0.00 0.00 0.00 89 1015.8
20260901075531 55 0 0.0 0.0 0.00 0.00 0.00 89 1015.8
20260901075031 55 0 0.0 0.0 0.00 0.00 0.00 88 1015.6
20260901074543 55 0 0.0 0.0 0.00 0.00 0.00 88 1015.6
20260901074028 55 0 0.0 0.0 0.00 0.00 0.00 88 1015.6
20260901073528 56 0 0.0 1.0 0.00 0.00 0.00 88 1015.7
20260901073052 56 0 0.0 4.0 0.00 0.00 0.00 88 1015.7
20260901072528 56 193 0.0 4.0 0.00 0.00 0.00 88 1015.7
20260901072031 56 0 0.0 3.0 0.00 0.00 0.00 88 1015.7
20260901071555 56 128 1.0 3.0 0.00 0.00 0.00 89 1015.7
20260901071027 56 0 0.0 1.0 0.00 0.00 0.00 89 1015.7
20260901070527 56 0 0.0 1.0 0.00 0.00 0.00 89 1015.8
20260901070050 56 0 0.0 1.0 0.00 0.00 0.00 90 1015.7
20260901065528 55 0 0.0 1.0 0.00 0.00 0.00 90 1015.8
20260901065031 55 0 0.0 0.0 0.00 0.00 0.00 91 1015.7
20260901064545 55 0 0.0 1.0 0.00 0.00 0.00 91 1015.7
20260901064033 54 0 0.0 1.0 0.00 0.00 0.00 92 1015.7
20260901063529 54 0 0.0 0.0 0.00 0.00 0.00 91 1015.8
20260901063104 54 0 0.0 0.0 0.00 0.00 0.00 90 1015.8
20260901062529 54 0 0.0 0.0 0.00 0.00 0.00 90 1015.8
20260901062030 54 0 0.0 0.0 0.00 0.00 0.00 90 1015.7
20260901061558 54 0 0.0 0.0 0.00 0.00 0.00 89 1015.8
20260901061030 54 0 0.0 0.0 0.00 0.00 0.00 89 1015.7
20260901060530 55 0 0.0 0.0 0.00 0.00 0.00 89 1015.7
20260901060058 55 0 0.0 0.0 0.00 0.00 0.00 88 1015.6
20260901055528 55 0 0.0 0.0 0.00 0.00 0.00 89 1015.7
20260901055028 55 0 0.0 0.0 0.00 0.00 0.00 88 1015.6
20260901054546 55 0 0.0 1.0 0.00 0.00 0.00 88 1015.6
20260901054028 55 0 0.0 1.0 0.00 0.00 0.00 88 1015.7
20260901053533 55 0 0.0 3.0 0.00 0.00 0.00 88 1015.6
20260901053056 56 0 0.0 3.0 0.00 0.00 0.00 88 1015.6
20260901052527 56 0 0.0 2.0 0.00 0.00 0.00 88 1015.6
20260901052028 56 0 0.0 2.0 0.00 0.00 0.00 88 1015.5
20260901051551 56 187 0.0 3.0 0.00 0.00 0.00 88 1015.4
20260901051028 56 186 0.0 3.0 0.00 0.00 0.00 88 1015.5
20260901050531 56 173 0.0 2.0 0.00 0.00 0.00 88 1015.5
20260901050059 56 0 0.0 0.0 0.00 0.00 0.00 88 1015.5
20260901045532 56 0 0.0 1.0 0.00 0.00 0.00 87 1015.5
20260901045032 56 0 0.0 1.0 0.00 0.00 0.00 87 1015.5
20260901044558 56 0 0.0 1.0 0.00 0.00 0.00 86 1015.6
20260901044030 56 0 0.0 1.0 0.00 0.00 0.00 86 1015.6
20260901043528 56 0 0.0 3.0 0.00 0.00 0.00 86 1015.4
20260901043043 56 219 1.0 5.0 0.00 0.00 0.00 86 1015.3
20260901042525 56 0 0.0 5.0 0.00 0.00 0.00 85 1015.3
20260901042025 57 120 1.0 2.0 0.00 0.00 0.00 85 1015.3
20260901041542 57 142 0.0 2.0 0.00 0.00 0.00 85 1015.2
20260901041024 57 119 0.0 3.0 0.00 0.00 0.00 85 1015.3
20260901040527 57 139 1.0 3.0 0.00 0.00 0.00 84 1015.3
20260901040053 57 0 0.0 5.0 0.00 0.00 0.00 84 1015.3
20260901035527 57 93 1.0 6.0 0.00 0.00 0.00 84 1015.2
20260901035027 57 82 2.0 6.0 0.00 0.00 0.00 83 1015.1
20260901034548 57 235 1.0 8.0 0.00 0.00 0.00 83 1015.1
20260901034030 57 101 2.0 9.0 0.00 0.00 0.00 83 1015.0
20260901033528 58 0 0.0 9.0 0.00 0.00 0.00 82 1014.7
20260901033045 58 215 1.0 6.0 0.00 0.00 0.00 82 1014.6
20260901032528 58 127 1.0 6.0 0.00 0.00 0.00 81 1014.4
20260901032026 58 148 1.0 6.0 0.00 0.00 0.00 81 1014.3
20260901031542 58 11 1.0 4.0 0.00 0.00 0.00 80 1014.2
20260901031027 58 173 0.0 2.0 0.00 0.00 0.00 79 1014.1
20260901030527 59 281 0.0 3.0 0.00 0.00 0.00 79 1014.1
20260901030052 59 0 0.0 3.0 0.00 0.00 0.00 78 1014.0
20260901025531 59 129 0.0 5.0 0.00 0.00 0.00 78 1014.0
20260901025029 59 140 1.0 5.0 0.00 0.00 0.00 77 1014.0
20260901024547 59 242 0.0 4.0 0.00 0.00 0.00 77 1013.9
20260901024031 60 219 1.0 4.0 0.00 0.00 0.00 76 1013.9
20260901023527 60 238 1.0 5.0 0.00 0.00 0.00 75 1014.0
20260901023047 60 210 0.0 6.0 0.00 0.00 0.00 74 1013.9
20260901022527 61 200 1.0 6.0 0.00 0.00 0.00 73 1013.9
20260901022031 61 203 1.0 7.0 0.00 0.00 0.00 73 1013.9
20260901021547 62 63 2.0 7.0 0.00 0.00 0.00 72 1013.9
20260901021028 62 204 2.0 6.0 0.00 0.00 0.00 71 1013.9
20260901020529 62 84 2.0 6.0 0.00 0.00 0.00 70 1013.8
20260901020049 63 236 2.0 6.0 0.00 0.00 0.00 70 1013.8
20260901015528 63 106 2.0 9.0 0.00 0.00 0.00 69 1013.8
20260901015027 64 182 1.0 9.0 0.00 0.00 0.00 69 1013.8
20260901014553 64 245 3.0 7.0 0.00 0.00 0.00 68 1013.8
20260901014028 64 181 2.0 9.0 0.00 0.00 0.00 67 1013.7
20260901013529 65 235 3.0 9.0 0.00 0.00 0.00 67 1013.7
20260901013046 65 143 4.0 9.0 0.00 0.00 0.00 65 1013.6
20260901012529 66 223 3.0 8.0 0.00 0.00 0.00 64 1013.5
20260901012025 66 177 2.0 8.0 0.00 0.00 0.00 63 1013.6
20260901011542 67 127 3.0 7.0 0.00 0.00 0.00 62 1013.6
20260901011026 68 167 1.0 7.0 0.00 0.00 0.00 61 1013.7
20260901010528 68 143 1.0 7.0 0.00 0.00 0.00 60 1013.7
20260901010053 69 213 2.0 7.0 0.00 0.00 0.00 59 1013.7
20260901005528 70 228 3.0 7.0 0.00 0.00 0.00 57 1013.7
20260901005026 70 102 1.0 5.0 0.00 0.00 0.00 57 1013.7
20260901004603 70 158 1.0 5.0 0.00 0.00 0.00 57 1013.7
20260901004027 71 131 1.0 9.0 0.00 0.00 0.00 57 1013.7
20260901003526 71 228 3.0 9.0 0.00 0.00 0.00 56 1013.7
20260901003048 71 242 3.0 7.0 0.00 0.00 0.00 55 1013.7
20260901002526 71 72 1.0 8.0 0.00 0.00 0.00 56 1013.6
20260901002029 71 79 1.0 8.0 0.00 0.00 0.00 55 1013.7
20260901001541 72 186 1.0 7.0 0.00 0.00 0.00 55 1013.7
20260901001028 72 238 3.0 6.0 0.00 0.00 0.00 54 1013.7
20260901000526 72 1 1.0 6.0 0.00 0.00 0.00 54 1013.7
20260901000106 72 204 2.0 5.0 0.00 0.00 0.00 54 1013.7
20260831235527 72 235 2.0 5.0 0.00 0.00 0.00 53 1013.8
20260831235026 72 221 1.0 6.0 0.00 0.00 0.00 53 1013.8
20260831234556 72 104 2.0 6.0 0.00 0.00 0.00 54 1013.8
20260831234028 72 189 2.0 6.0 0.00 0.00 0.00 54 1013.8
20260831233530 72 193 2.0 8.0 0.00 0.00 0.00 54 1013.8
20260831233048 72 129 3.0 8.0 0.00 0.00 0.00 54 1013.8
20260831232528 72 143 3.0 8.0 0.00 0.00 0.00 53 1013.8
20260831232031 73 134 2.0 8.0 0.00 0.00 0.00 53 1014.0
20260831231551 73 242 2.0 8.0 0.00 0.00 0.00 53 1014.0
20260831231025 73 250 2.0 6.0 0.00 0.00 0.00 53 1014.0
20260831230527 73 132 2.0 10.0 0.00 0.00 0.00 53 1014.0
20260831230043 73 243 4.0 10.0 0.00 0.00 0.00 52 1013.9
20260831225529 73 132 2.0 12.0 0.00 0.00 0.00 51 1013.9
20260831225026 74 221 3.0 12.0 0.00 0.00 0.00 52 1013.9
20260831224555 74 210 2.0 7.0 0.00 0.00 0.00 50 1013.9
20260831224027 75 357 2.0 8.0 0.00 0.00 0.00 49 1014.0
20260831223525 75 68 2.0 9.0 0.00 0.00 0.00 49 1013.9
20260831223047 75 110 3.0 9.0 0.00 0.00 0.00 48 1013.9
20260831222530 76 226 2.0 9.0 0.00 0.00 0.00 47 1014.0
20260831222029 76 181 2.0 13.0 0.00 0.00 0.00 48 1013.9
20260831221548 76 267 3.0 13.0 0.00 0.00 0.00 48 1013.9
20260831221028 76 217 3.0 13.0 0.00 0.00 0.00 48 1013.9
20260831220527 76 62 3.0 12.0 0.00 0.00 0.00 48 1013.9
20260831220048 76 61 4.0 11.0 0.00 0.00 0.00 46 1014.0
20260831215525 76 117 3.0 11.0 0.00 0.00 0.00 47 1014.0
20260831215026 76 166 4.0 11.0 0.00 0.00 0.00 46 1014.0
20260831214550 76 225 4.0 11.0 0.00 0.00 0.00 45 1014.0
20260831214028 77 285 3.0 9.0 0.00 0.00 0.00 45 1014.0
20260831213529 77 94 2.0 9.0 0.00 0.00 0.00 45 1014.0
20260831213058 78 127 4.0 8.0 0.00 0.00 0.00 43 1014.0
20260831212527 78 239 1.0 13.0 0.00 0.00 0.00 44 1014.0
20260831212029 78 53 2.0 13.0 0.00 0.00 0.00 45 1014.1
20260831211549 78 186 4.0 13.0 0.00 0.00 0.00 42 1014.1
20260831211027 79 98 2.0 11.0 0.00 0.00 0.00 43 1014.0
20260831210529 79 124 2.0 10.0 0.00 0.00 0.00 42 1014.1
20260831210046 80 342 3.0 7.0 0.00 0.00 0.00 42 1014.0
20260831205529 80 64 2.0 7.0 0.00 0.00 0.00 43 1013.9
20260831205030 79 215 1.0 6.0 0.00 0.00 0.00 44 1013.9
20260831204542 79 288 3.0 6.0 0.00 0.00 0.00 44 1014.0
20260831204027 79 266 1.0 7.0 0.00 0.00 0.00 44 1014.1
20260831203530 79 113 3.0 7.0 0.00 0.00 0.00 45 1014.1
20260831203042 79 155 2.0 5.0 0.00 0.00 0.00 45 1014.2
20260831202527 79 252 1.0 5.0 0.00 0.00 0.00 44 1014.2
20260831202028 80 263 2.0 5.0 0.00 0.00 0.00 45 1014.2
20260831201549 79 243 1.0 5.0 0.00 0.00 0.00 45 1014.3
20260831201027 79 103 1.0 5.0 0.00 0.00 0.00 45 1014.4
20260831200526 78 261 1.0 5.0 0.00 0.00 0.00 46 1014.4
20260831200047 78 130 2.0 5.0 0.00 0.00 0.00 46 1014.5
20260831195524 78 87 0.0 5.0 0.00 0.00 0.00 47 1014.5
20260831195028 77 215 1.0 6.0 0.00 0.00 0.00 48 1014.7
20260831194610 77 201 2.0 6.0 0.00 0.00 0.00 49 1014.7
20260831194027 76 113 0.0 4.0 0.00 0.00 0.00 50 1014.9
20260831193528 76 163 1.0 4.0 0.00 0.00 0.00 50 1015.0
20260831193052 75 235 1.0 4.0 0.00 0.00 0.00 51 1015.1
20260831192528 74 0 0.0 5.0 0.00 0.00 0.00 54 1015.1
20260831192028 73 0 1.0 6.0 0.00 0.00 0.00 54 1015.1
20260831191547 73 302 2.0 6.0 0.00 0.00 0.00 53 1015.3
20260831191028 72 127 2.0 3.0 0.00 0.00 0.00 54 1015.3
20260831190526 72 124 0.0 3.0 0.00 0.00 0.00 55 1015.4
20260831185529 71 159 1.0 4.0 0.00 0.00 0.00 56 1015.5
20260831185029 70 208 0.0 3.0 0.00 0.00 0.00 58 1015.5
20260831184604 69 169 0.0 6.0 0.00 0.00 0.00 59 1015.6
20260831184028 68 125 0.0 6.0 0.00 0.00 0.00 59 1015.6
20260831183526 69 124 2.0 4.0 0.00 0.00 0.00 59 1015.7
20260831183055 68 122 1.0 3.0 0.00 0.00 0.00 61 1015.7
20260831182525 67 134 1.0 3.0 0.00 0.00 0.00 63 1015.7
20260831182031 67 221 1.0 4.0 0.00 0.00 0.00 62 1015.8
20260831181556 66 176 1.0 4.0 0.00 0.00 0.00 62 1015.9
20260831181028 67 144 2.0 4.0 0.00 0.00 0.00 63 1016.0
20260831180528 66 144 0.0 4.0 0.00 0.00 0.00 64 1015.9
20260831180047 65 0 0.0 4.0 0.00 0.00 0.00 65 1016.0
20260831175525 66 307 2.0 4.0 0.00 0.00 0.00 65 1015.9
20260831175026 65 146 1.0 4.0 0.00 0.00 0.00 67 1015.9
20260831174550 64 143 1.0 4.0 0.00 0.00 0.00 67 1015.9
20260831174029 64 0 1.0 4.0 0.00 0.00 0.00 68 1015.9
20260831173528 64 308 1.0 3.0 0.00 0.00 0.00 68 1015.8
20260831173042 64 302 1.0 3.0 0.00 0.00 0.00 69 1015.9
20260831172526 63 301 1.0 4.0 0.00 0.00 0.00 70 1015.9
20260831172028 63 328 2.0 4.0 0.00 0.00 0.00 70 1015.8
20260831171557 62 314 2.0 5.0 0.00 0.00 0.00 71 1015.9
20260831171032 62 319 1.0 6.0 0.00 0.00 0.00 73 1015.9
20260831170530 61 341 1.0 6.0 0.00 0.00 0.00 75 1015.9
20260831170056 60 240 1.0 4.0 0.00 0.00 0.00 75 1015.8
20260831165528 60 274 1.0 4.0 0.00 0.00 0.00 75 1015.7
20260831165026 60 355 2.0 4.0 0.00 0.00 0.00 76 1015.8
20260831164558 59 247 0.0 5.0 0.00 0.00 0.00 77 1015.8
20260831164030 59 335 2.0 5.0 0.00 0.00 0.00 76 1015.8
20260831163528 59 309 0.0 3.0 0.00 0.00 0.00 78 1015.7
20260831163050 59 294 1.0 3.0 0.00 0.00 0.00 78 1015.8
20260831162531 58 315 0.0 3.0 0.00 0.00 0.00 78 1015.7
20260831162030 58 0 1.0 3.0 0.00 0.00 0.00 79 1015.8
20260831161548 58 329 0.0 3.0 0.00 0.00 0.00 79 1015.9
20260831161033 58 338 1.0 3.0 0.00 0.00 0.00 80 1015.7
20260831160529 57 323 1.0 3.0 0.00 0.00 0.00 80 1015.6
20260831160101 57 0 0.0 5.0 0.00 0.00 0.00 81 1015.6
20260831155532 57 327 2.0 5.0 0.00 0.00 0.00 81 1015.7
20260831155030 57 0 0.0 3.0 0.00 0.00 0.00 82 1015.7
20260831154659 57 318 0.0 3.0 0.00 0.00 0.00 83 1015.7
20260831154030 56 0 0.0 3.0 0.00 0.00 0.00 82 1015.7
20260831153530 56 0 0.0 0.0 0.00 0.00 0.00 83 1015.7
20260831153051 55 0 0.0 0.0 0.00 0.00 0.00 83 1015.7
20260831152528 55 0 0.0 0.0 0.00 0.00 0.00 83 1015.7
20260831152029 55 0 0.0 0.0 0.00 0.00 0.00 84 1015.7
20260831151546 54 0 0.0 0.0 0.00 0.00 0.00 85 1015.6
20260831151031 54 0 0.0 0.0 0.00 0.00 0.00 85 1015.5
20260831150531 54 0 0.0 0.0 0.00 0.00 0.00 85 1015.5
20260831150046 53 0 0.0 0.0 0.00 0.00 0.00 85 1015.6
20260831145531 53 0 0.0 0.0 0.00 0.00 0.00 85 1015.4
20260831145030 53 0 0.0 0.0 0.00 0.00 0.00 87 1015.3
20260831144555 52 0 0.0 0.0 0.00 0.00 0.00 86 1015.1
20260831144028 52 0 0.0 0.0 0.00 0.00 0.00 86 1015.2
20260831143528 52 0 0.0 0.0 0.00 0.00 0.00 86 1015.2
20260831143107 52 0 0.0 0.0 0.00 0.00 0.00 86 1015.2
20260831142532 51 0 0.0 0.0 0.00 0.00 0.00 86 1015.1
20260831142029 51 0 0.0 0.0 0.00 0.00 0.00 86 1015.0
20260831141609 51 0 0.0 0.0 0.00 0.00 0.00 86 1015.0
20260831141028 50 0 0.0 0.0 0.00 0.00 0.00 86 1014.8
20260831140530 50 0 0.0 0.0 0.00 0.00 0.00 86 1014.7
20260831140057 50 0 0.0 0.0 0.00 0.00 0.00 87 1014.6
20260831135528 50 0 0.0 0.0 0.00 0.00 0.00 87 1014.5
20260831135028 49 0 0.0 0.0 0.00 0.00 0.00 86 1014.5
20260831134547 49 0 0.0 0.0 0.00 0.00 0.00 86 1014.5
20260831134029 49 0 0.0 0.0 0.00 0.00 0.00 87 1014.5
20260831133530 49 0 0.0 0.0 0.00 0.00 0.00 87 1014.5
20260831133044 49 0 0.0 0.0 0.00 0.00 0.00 87 1014.4
20260831132528 49 0 0.0 0.0 0.00 0.00 0.00 88 1014.5
20260831132030 48 0 0.0 0.0 0.00 0.00 0.00 88 1014.5
20260831131554 48 0 0.0 0.0 0.00 0.00 0.00 90 1014.5
20260831131029 48 0 0.0 0.0 0.00 0.00 0.00 90 1014.5
20260831130533 47 0 0.0 0.0 0.00 0.00 0.00 90 1014.5
20260831130056 47 0 0.0 0.0 0.00 0.00 0.00 90 1014.6
20260831125530 47 0 0.0 0.0 0.00 0.00 0.00 91 1014.5
20260831125028 46 0 0.0 0.0 0.00 0.00 0.00 90 1014.5
20260831124547 46 0 0.0 0.0 0.00 0.00 0.00 90 1014.4
20260831124033 45 0 0.0 0.0 0.00 0.00 0.00 90 1014.4